Location: Tarleton Observatory
(32.2162°N, 98.0976°W)
Time: 17:11:42
(UTC-06:00)

Daily predictions for brighter satellites

Satellite Brightness Start Highest point End
(mag) Time Altitude Azimuth Time Altitude Azimuth Time Altitude Azimuth
Cosmos 1733 Rocket 3.1 17:51:09 10° N 17:55:32 59° E 17:59:55 10° SSE
Cosmos 1570 Rocket 4.5 17:54:09 10° NNW 17:59:28 71° WSW 18:04:45 10° S
Cosmos 1862 Rocket 3.6 17:55:51 10° S 18:00:15 88° W 18:04:42 10° N
CSL-04 Rocket 3.6 17:57:07 10° SSE 18:02:23 88° ENE 18:07:43 10° NNW
Cosmos 2082 Rocket 3.9 18:00:40 10° NNE 18:02:56 12° NE 18:05:12 10° E
Cosmos 1340 4.4 18:04:19 10° SW 18:07:46 34° W 18:11:14 10° NNW
GPS 2-05 Rocket1 4.5 18:05:35 10° SSW 18:08:01 20° SSE 18:10:28 10° E
Cosmos 1437 4.1 18:11:40 10° SSW 18:14:40 41° W 18:17:42 10° N
METEOR-M 4.4 18:12:04 10° SE 18:17:05 43° ENE 18:22:06 10° N
OE (NEXTSAT) 4.3 18:15:07 10° NW 18:18:38 76° NE 18:22:09 10° ESE
OAO 3 Copernicus 4.5 18:14:09 10° W 18:19:12 63° N 18:23:16 16° ENE
Cosmos 371 Rocket 4.4 18:16:29 10° NNW 18:21:06 48° WSW 18:25:42 10° S
Cosmos 1461 4.0 18:16:42 10° NW 18:21:18 55° WSW 18:25:55 10° SSE
ERS-2 2.5 18:18:45 10° SE 18:22:13 42° ENE 18:25:42 10° N
Okean 1-7 3.6 18:19:21 10° SSE 18:23:21 36° E 18:27:22 10° NNE
CENTAUR R/B 4.3 18:20:10 10° WSW 18:25:08 26° NW 18:30:39 10° N
ERBS 3.3 18:22:30 10° NNW 18:25:28 28° NE 18:27:00 20° E
Cosmos 304 Rocket 3.8 18:21:26 10° N 18:26:08 53° ENE 18:30:48 10° SSE
CZ-4 R/B 4.4 18:25:53 10° SSE 18:29:59 66° ENE 18:34:08 10° N
IRS-1A Rocket 4.3 18:24:25 10° SSE 18:30:16 85° ENE 18:36:04 10° NNW
Cosmos 468 Rocket 4.3 18:25:09 10° NNW 18:30:17 68° WSW 18:35:21 10° S
Meteor 1-14 Rocket 4.1 18:27:33 10° N 18:33:13 80° E 18:38:45 10° S
COSMOS 2406 4.1 18:29:02 10° NNW 18:34:36 54° WSW 18:40:06 10° S
OAO 3 Rocket 4.3 18:30:28 10° SW 18:34:50 32° SSE 18:37:33 19° E
COSMOS 2455 4.4 18:31:01 10° WSW 18:36:23 34° WNW 18:41:47 10° N
Cosmos 1782 Rocket 4.0 18:32:28 10° NNE 18:36:30 37° E 18:40:31 10° SSE
YAOGAN 1 2.5 18:32:58 10° SSE 18:37:17 90° E 18:41:38 10° NNW
Cosmos 1072 Rocket 4.5 18:32:22 10° S 18:38:25 61° E 18:44:35 10° NNE
CZ-4 R/B 2.3 18:36:30 10° S 18:40:18 50° W 18:44:03 10° NNW
COSMO-SKYMED 1 2.6 18:36:12 10° N 18:40:33 83° WNW 18:44:52 10° SSW
Cosmos 2034 Rocket 4.3 18:38:49 10° SSE 18:44:47 44° E 18:50:46 10° NNE
Cosmos 2221 Rocket 3.5 18:41:17 10° S 18:45:38 63° E 18:50:00 10° NNE
Cosmos 1763 Rocket 3.6 18:46:49 10° NNW 18:52:01 76° WSW 18:57:06 10° S
FENGYUN 3A 3.7 18:47:06 10° SSE 18:52:23 56° ENE 18:57:40 10° N
Meteor 1-11 Rocket 4.5 18:47:49 10° NNE 18:52:49 29° ENE 18:53:04 29° E
ALOS 2.2 18:48:32 10° SSE 18:53:06 58° ENE 18:57:42 10° N
Cosmos 2297 3.6 18:50:05 10° SSW 18:55:46 83° ESE 19:00:47 14° NNE
MOS 1 4.3 18:50:56 10° SSE 18:56:38 88° WSW 19:02:22 10° NNW
Cosmos 1703 Rocket 4.5 18:55:11 10° SSW 18:59:31 50° W 19:03:53 10° N
SL-27 R/B 3.0 18:56:36 10° N 18:58:54 39° N 18:58:54 39° N
Cosmos 1503 Rocket 4.1 18:56:57 10° SSW 19:02:15 77° WNW 19:07:13 12° NNE
Cosmos 2278 Rocket 3.8 18:57:54 10° SW 19:02:55 32° WNW 19:07:58 10° N
Cosmos 1833 Rocket 3.0 18:58:25 10° N 19:03:44 42° ENE 19:05:02 36° E
Cosmos 1633 2.8 19:04:15 10° N 19:07:54 71° W 19:11:33 10° S
Okean 2 Rocket 3.0 19:08:18 10° N 19:12:49 64° E 19:17:17 10° SSE
Cosmos 1441 Rocket 3.2 19:10:16 10° S 19:13:56 70° SE 19:13:56 70° SE
Cosmos 1464 Rocket 4.1 19:08:14 10° SSW 19:14:19 72° W 19:20:27 10° N
Cosmos 968 Rocket 3.6 19:11:00 10° S 19:15:54 51° ESE 19:15:54 51° ESE
Meteor 2-20 4.3 19:15:32 10° N 19:21:33 63° E 19:27:32 10° SSE
Cosmos 836 Rocket 4.3 19:17:03 10° NNW 19:22:18 71° ENE 19:24:14 39° SE
Cosmos 540 Rocket 3.3 19:19:05 10° NNW 19:24:16 77° ENE 19:26:14 39° SSE
Cosmos 841 Rocket 4.4 19:20:40 10° NNW 19:25:43 48° WSW 19:30:43 10° S
BREEZE-M R/B 4.2 19:23:14 10° NW 19:24:58 29° NNW 19:24:58 29° NNW
USA 234 4.4 19:24:10 16° NNE 19:28:34 35° NW 19:34:19 10° W
FengYun 1-2 T 4.1 19:40:38 10° SSE 19:46:07 85° WSW 19:51:41 10° NNW
Cosmos 2082 Rocket 2.2 19:41:57 10° NNW 19:47:38 79° WSW 19:47:56 76° SW
CZ-4C R/B 3.9 19:43:30 10° NNW 19:47:31 29° NNE 19:47:31 29° NNE
CZ-3A R/B 3.5 19:53:13 10° NW 20:02:10 72° SW 20:03:13 59° S
USA 229 DEB 4.1 20:07:20 10° SSW 20:12:23 55° SSW 20:12:23 55° SSW
USA 229 4.1 20:07:26 10° SSW 20:12:26 54° SSW 20:12:26 54° SSW
